Location: Bishopstone
(51.0167°N, 1.9000°W)
Time: 14:51:37
(UTC+00:00)

Cosmos 1766 - Pass Details

Date: 16 September 2019
Orbit: 521 x 546 km, 82.5° (Epoch: 18 October)

Event Time Altitude Azimuth Distance (km) Brightness Sun altitude
Exits shadow 20:54:56 52° 25° (NNE) 679 3.7 -23.3°
Drops below altitude 10° 20:57:59 10° 13° (NNE) 1,800 6.2 -23.7°
Sets 21:00:08 0° 12° (NNE) 2,691 7.2 -24.0°
